Time,TemperatureF,DewpointF,PressureIn,WindDirection,WindDirectionDegrees,WindSpeedMPH,WindSpeedGustMPH,Humidity,HourlyPrecipIn,Conditions,Clouds,dailyrainin,SoftwareType,DateUTC
2013-06-12 00:03:00,62.0,57.0,29.85,NE,56,0.0,0.0,85,0.00,,,0.06,,2013-06-12 04:03:00,
2013-06-12 00:13:00,62.0,57.0,29.85,NE,56,0.0,0.0,85,0.00,,,0.06,,2013-06-12 04:13:00,
2013-06-12 00:23:00,62.0,57.0,29.84,NE,56,0.0,4.0,83,0.00,,,0.06,,2013-06-12 04:23:00,
2013-06-12 00:33:00,62.0,57.0,29.84,NE,56,0.0,0.0,83,0.00,,,0.06,,2013-06-12 04:33:00,
2013-06-12 00:42:00,61.0,57.0,29.84,NE,56,0.0,0.0,86,0.00,,,0.06,,2013-06-12 04:42:00,
2013-06-12 00:53:00,61.0,57.0,29.84,NE,56,0.0,0.0,86,0.00,,,0.06,,2013-06-12 04:53:00,
2013-06-12 01:03:00,60.0,56.0,29.84,SSE,156,0.0,0.0,88,0.00,,,0.06,,2013-06-12 05:03:00,
2013-06-12 01:12:00,60.0,57.0,29.85,SSE,156,0.0,0.0,89,0.00,,,0.06,,2013-06-12 05:12:00,
2013-06-12 01:22:00,60.0,57.0,29.85,SSE,156,0.0,0.0,89,0.00,,,0.06,,2013-06-12 05:22:00,
2013-06-12 01:32:00,60.0,57.0,29.85,SSE,156,0.0,0.0,89,0.00,,,0.06,,2013-06-12 05:32:00,
2013-06-12 01:42:00,59.0,56.0,29.86,SSE,157,0.0,0.0,91,0.00,,,0.06,,2013-06-12 05:42:00,
2013-06-12 01:52:00,59.0,56.0,29.86,SSE,157,0.0,0.0,91,0.00,,,0.06,,2013-06-12 05:52:00,
2013-06-12 02:02:00,59.0,56.0,29.85,SSE,157,0.0,0.0,91,0.00,,,0.06,,2013-06-12 06:02:00,
2013-06-12 02:12:00,59.0,56.0,29.85,SSE,157,0.0,0.0,91,0.00,,,0.06,,2013-06-12 06:12:00,
2013-06-12 02:22:00,58.0,55.0,29.85,South,180,0.0,0.0,91,0.00,,,0.06,,2013-06-12 06:22:00,
2013-06-12 02:32:00,58.0,55.0,29.84,South,180,0.0,1.0,91,0.00,,,0.06,,2013-06-12 06:32:00,
2013-06-12 02:42:00,58.0,55.0,29.84,South,180,0.0,1.0,91,0.00,,,0.06,,2013-06-12 06:42:00,
2013-06-12 02:52:00,58.0,56.0,29.83,South,173,2.0,3.0,92,0.00,,,0.06,,2013-06-12 06:52:00,
2013-06-12 03:02:00,58.0,56.0,29.86,WSW,242,1.0,3.0,92,0.00,,,0.06,,2013-06-12 07:02:00,
2013-06-12 03:12:00,58.0,55.0,29.86,WSW,237,1.0,3.0,91,0.00,,,0.06,,2013-06-12 07:12:00,
2013-06-12 03:22:00,58.0,55.0,29.86,WSW,237,0.0,1.0,91,0.00,,,0.06,,2013-06-12 07:22:00,
2013-06-12 03:33:00,58.0,55.0,29.86,WSW,237,0.0,0.0,91,0.00,,,0.06,,2013-06-12 07:33:00,
2013-06-12 03:43:00,58.0,56.0,29.86,WSW,237,0.0,0.0,92,0.00,,,0.06,,2013-06-12 07:43:00,
2013-06-12 03:53:00,58.0,56.0,29.85,WSW,237,0.0,0.0,92,0.00,,,0.06,,2013-06-12 07:53:00,
2013-06-12 04:02:00,58.0,56.0,29.86,WSW,237,0.0,3.0,93,0.00,,,0.06,,2013-06-12 08:02:00,
2013-06-12 04:12:00,57.0,55.0,29.86,SSW,192,3.0,4.0,93,0.00,,,0.06,,2013-06-12 08:12:00,
2013-06-12 04:22:00,57.0,55.0,29.85,South,184,0.0,4.0,93,0.00,,,0.06,,2013-06-12 08:22:00,
2013-06-12 04:33:00,57.0,55.0,29.85,South,184,0.0,0.0,93,0.00,,,0.06,,2013-06-12 08:33:00,
2013-06-12 04:43:00,57.0,55.0,29.85,South,184,0.0,0.0,93,0.00,,,0.06,,2013-06-12 08:43:00,
2013-06-12 04:53:00,57.0,55.0,29.85,South,184,0.0,1.0,93,0.00,,,0.06,,2013-06-12 08:53:00,
2013-06-12 05:01:00,57.0,55.0,29.85,South,184,0.0,0.0,93,0.00,,,0.06,,2013-06-12 09:01:00,
2013-06-12 05:11:00,57.0,55.0,29.85,South,184,0.0,0.0,93,0.00,,,0.04,,2013-06-12 09:11:00,
2013-06-12 05:22:00,56.0,54.0,29.85,South,184,0.0,0.0,94,0.00,,,0.04,,2013-06-12 09:22:00,
2013-06-12 05:33:00,56.0,54.0,29.85,South,184,0.0,0.0,93,0.00,,,0.04,,2013-06-12 09:33:00,
2013-06-12 05:43:00,55.0,53.0,29.85,SE,139,0.0,0.0,94,0.00,,,0.04,,2013-06-12 09:43:00,
2013-06-12 05:53:00,55.0,53.0,29.85,SE,142,0.0,0.0,94,0.00,,,0.04,,2013-06-12 09:53:00,
2013-06-12 06:02:00,55.0,53.0,29.86,SE,142,0.0,0.0,94,0.00,,,0.04,,2013-06-12 10:02:00,
2013-06-12 06:12:00,55.0,54.0,29.86,SE,142,0.0,1.0,95,0.00,,,0.02,,2013-06-12 10:12:00,
2013-06-12 06:23:00,55.0,54.0,29.86,SE,142,0.0,0.0,95,0.00,,,0.02,,2013-06-12 10:23:00,
2013-06-12 06:33:00,55.0,54.0,29.87,SE,142,0.0,0.0,95,0.00,,,0.02,,2013-06-12 10:33:00,
2013-06-12 06:43:00,55.0,54.0,29.88,SE,142,0.0,0.0,95,0.00,,,0.02,,2013-06-12 10:43:00,
2013-06-12 06:53:00,55.0,54.0,29.88,SE,142,0.0,0.0,95,0.00,,,0.02,,2013-06-12 10:53:00,
2013-06-12 07:02:00,55.0,54.0,29.89,SE,142,0.0,0.0,96,0.00,,,0.02,,2013-06-12 11:02:00,
2013-06-12 07:12:00,56.0,55.0,29.89,SE,142,0.0,0.0,96,0.00,,,0.00,,2013-06-12 11:12:00,
2013-06-12 07:24:00,57.0,56.0,29.89,SE,142,0.0,0.0,97,0.00,,,0.00,,2013-06-12 11:24:00,
2013-06-12 07:33:00,58.0,57.0,29.89,SE,142,0.0,0.0,97,0.00,,,0.00,,2013-06-12 11:33:00,
2013-06-12 07:43:00,59.0,58.0,29.90,SE,142,0.0,0.0,97,0.00,,,0.00,,2013-06-12 11:43:00,
2013-06-12 07:53:00,61.0,60.0,29.90,SE,142,0.0,0.0,96,0.00,,,0.00,,2013-06-12 11:53:00,
2013-06-12 08:02:00,61.0,59.0,29.90,SE,142,0.0,0.0,93,0.00,,,0.00,,2013-06-12 12:02:00,
2013-06-12 08:11:00,62.0,59.0,29.90,SE,141,0.0,0.0,90,0.00,,,0.00,,2013-06-12 12:11:00,
2013-06-12 08:23:00,62.0,59.0,29.90,ENE,78,0.0,1.0,89,0.00,,,0.00,,2013-06-12 12:23:00,
2013-06-12 08:33:00,63.0,59.0,29.90,ENE,61,0.0,4.0,86,0.00,,,0.00,,2013-06-12 12:33:00,
2013-06-12 08:43:00,63.0,58.0,29.91,ENE,59,0.0,5.0,84,0.00,,,0.00,,2013-06-12 12:43:00,
2013-06-12 08:53:00,64.0,59.0,29.91,NE,42,0.0,3.0,83,0.00,,,0.00,,2013-06-12 12:53:00,
2013-06-12 09:02:00,64.0,59.0,29.91,NE,42,0.0,3.0,83,0.00,,,0.00,,2013-06-12 13:02:00,
2013-06-12 09:12:00,65.0,58.0,29.92,NE,46,0.0,5.0,78,0.00,,,0.00,,2013-06-12 13:12:00,
2013-06-12 09:22:00,66.0,59.0,29.92,ESE,115,0.0,4.0,78,0.00,,,0.00,,2013-06-12 13:22:00,
2013-06-12 09:33:00,67.0,59.0,29.91,ENE,69,1.0,6.0,76,0.00,,,0.00,,2013-06-12 13:33:00,
2013-06-12 09:43:00,67.0,59.0,29.91,ESE,107,1.0,5.0,75,0.00,,,0.00,,2013-06-12 13:43:00,
2013-06-12 09:53:00,67.0,58.0,29.91,SE,132,0.0,6.0,74,0.00,,,0.00,,2013-06-12 13:53:00,
2013-06-12 10:02:00,67.0,58.0,29.91,SE,132,0.0,6.0,74,0.00,,,0.00,,2013-06-12 14:02:00,
2013-06-12 10:11:00,68.0,59.0,29.92,NE,51,0.0,4.0,72,0.00,,,0.00,,2013-06-12 14:11:00,
2013-06-12 10:24:00,68.0,60.0,29.91,ENE,59,5.0,6.0,75,0.00,,,0.00,,2013-06-12 14:24:00,
2013-06-12 10:33:00,68.0,60.0,29.91,ENE,59,5.0,6.0,75,0.00,,,0.00,,2013-06-12 14:33:00,
2013-06-12 10:43:00,69.0,60.0,29.91,ENE,58,0.0,3.0,72,0.00,,,0.00,,2013-06-12 14:43:00,
2013-06-12 10:53:00,69.0,60.0,29.91,ENE,57,0.0,4.0,72,0.00,,,0.00,,2013-06-12 14:53:00,
2013-06-12 11:01:00,69.0,60.0,29.91,ENE,57,0.0,4.0,72,0.00,,,0.00,,2013-06-12 15:01:00,
2013-06-12 11:12:00,69.0,57.0,29.91,ENE,61,1.0,5.0,66,0.00,,,0.00,,2013-06-12 15:12:00,
2013-06-12 11:23:00,69.0,59.0,29.91,NE,50,0.0,5.0,71,0.00,,,0.00,,2013-06-12 15:23:00,
2013-06-12 11:33:00,70.0,59.0,29.91,NE,41,0.0,3.0,69,0.00,,,0.00,,2013-06-12 15:33:00,
2013-06-12 11:43:00,70.0,60.0,29.91,East,92,0.0,3.0,70,0.00,,,0.00,,2013-06-12 15:43:00,
2013-06-12 11:52:00,71.0,59.0,29.92,North,5,0.0,1.0,66,0.00,,,0.00,,2013-06-12 15:52:00,
2013-06-12 12:02:00,71.0,59.0,29.91,ENE,57,0.0,4.0,66,0.00,,,0.00,,2013-06-12 16:02:00,
2013-06-12 12:12:00,72.0,59.0,29.92,ENE,57,0.0,3.0,64,0.00,,,0.00,,2013-06-12 16:12:00,
2013-06-12 12:22:00,72.0,60.0,29.92,NE,44,0.0,1.0,65,0.00,,,0.00,,2013-06-12 16:22:00,
2013-06-12 12:33:00,72.0,60.0,29.92,NE,44,0.0,1.0,65,0.00,,,0.00,,2013-06-12 16:33:00,
2013-06-12 12:43:00,73.0,59.0,29.91,SSW,209,0.0,2.0,61,0.00,,,0.00,,2013-06-12 16:43:00,
2013-06-12 12:52:00,73.0,59.0,29.91,SSW,209,0.0,2.0,61,0.00,,,0.00,,2013-06-12 16:52:00,
2013-06-12 13:02:00,73.0,58.0,29.90,NNE,30,1.0,3.0,60,0.00,,,0.00,,2013-06-12 17:02:00,
2013-06-12 13:12:00,73.0,59.0,29.90,NE,40,0.0,4.0,61,0.00,,,0.00,,2013-06-12 17:12:00,
2013-06-12 13:23:00,72.0,60.0,29.89,NE,46,0.0,3.0,66,0.00,,,0.00,,2013-06-12 17:23:00,
2013-06-12 13:33:00,73.0,59.0,29.89,NE,53,1.0,6.0,61,0.00,,,0.00,,2013-06-12 17:33:00,
2013-06-12 13:42:00,73.0,59.0,29.89,NE,53,1.0,6.0,61,0.00,,,0.00,,2013-06-12 17:42:00,
2013-06-12 13:52:00,73.0,60.0,29.87,SSE,152,0.0,3.0,63,0.00,,,0.00,,2013-06-12 17:52:00,
2013-06-12 14:02:00,73.0,59.0,29.87,SE,137,0.0,4.0,61,0.00,,,0.00,,2013-06-12 18:02:00,
2013-06-12 14:12:00,73.0,59.0,29.87,SE,137,0.0,4.0,61,0.00,,,0.00,,2013-06-12 18:12:00,
2013-06-12 14:22:00,73.0,59.0,29.87,SE,137,0.0,4.0,61,0.00,,,0.00,,2013-06-12 18:22:00,
2013-06-12 14:33:00,74.0,59.0,29.86,NNW,331,0.0,3.0,60,0.00,,,0.00,,2013-06-12 18:33:00,
2013-06-12 14:43:00,74.0,59.0,29.86,NE,42,0.0,2.0,59,0.00,,,0.00,,2013-06-12 18:43:00,
2013-06-12 14:53:00,74.0,59.0,29.86,North,349,0.0,1.0,59,0.00,,,0.00,,2013-06-12 18:53:00,
2013-06-12 15:02:00,74.0,60.0,29.87,SW,219,0.0,0.0,62,0.00,,,0.00,,2013-06-12 19:02:00,
2013-06-12 15:11:00,75.0,60.0,29.86,ENE,71,0.0,5.0,59,0.00,,,0.00,,2013-06-12 19:11:00,
2013-06-12 15:22:00,75.0,60.0,29.86,NE,54,1.0,7.0,59,0.00,,,0.00,,2013-06-12 19:22:00,
2013-06-12 15:32:00,75.0,60.0,29.86,NE,54,1.0,7.0,59,0.00,,,0.00,,2013-06-12 19:32:00,
2013-06-12 15:42:00,75.0,60.0,29.86,NE,54,1.0,7.0,59,0.00,,,0.00,,2013-06-12 19:42:00,
2013-06-12 15:52:00,75.0,60.0,29.86,NE,54,1.0,7.0,59,0.00,,,0.00,,2013-06-12 19:52:00,
2013-06-12 16:54:00,75.0,63.0,29.83,East,79,0.0,2.0,67,0.00,,,0.00,,2013-06-12 20:54:00,
2013-06-12 17:12:00,74.0,61.0,29.83,NNE,25,0.0,3.0,65,0.00,,,0.00,,2013-06-12 21:12:00,
2013-06-12 18:22:00,74.0,62.0,29.82,NE,43,0.0,2.0,67,0.00,,,0.00,,2013-06-12 22:22:00,
2013-06-12 18:32:00,74.0,62.0,29.82,NE,43,0.0,2.0,67,0.00,,,0.00,,2013-06-12 22:32:00,
2013-06-12 18:41:00,74.0,63.0,29.80,SE,137,0.0,5.0,68,0.00,,,0.00,,2013-06-12 22:41:00,
2013-06-12 18:43:00,74.0,62.0,29.81,ENE,58,0.0,2.0,67,0.00,,,0.00,,2013-06-12 22:43:00,
2013-06-12 18:52:00,74.0,62.0,29.81,ENE,58,0.0,2.0,67,0.00,,,0.00,,2013-06-12 22:52:00,
2013-06-12 19:02:00,74.0,63.0,29.80,SE,137,0.0,5.0,68,0.00,,,0.00,,2013-06-12 23:02:00,
2013-06-12 19:12:00,74.0,63.0,29.80,SE,137,0.0,5.0,68,0.00,,,0.00,,2013-06-12 23:12:00,
2013-06-12 19:22:00,74.0,63.0,29.80,SE,137,0.0,5.0,68,0.00,,,0.00,,2013-06-12 23:22:00,
2013-06-12 19:32:00,74.0,63.0,29.80,SE,137,0.0,5.0,68,0.00,,,0.00,,2013-06-12 23:32:00,
2013-06-12 20:12:00,70.0,61.0,29.80,ENE,78,0.0,0.0,73,0.00,,,0.00,,2013-06-13 00:12:00,
2013-06-12 20:22:00,70.0,62.0,29.80,ENE,78,0.0,0.0,75,0.00,,,0.00,,2013-06-13 00:22:00,
2013-06-12 20:33:00,70.0,62.0,29.81,ENE,78,0.0,0.0,76,0.00,,,0.00,,2013-06-13 00:33:00,
2013-06-12 20:42:00,70.0,62.0,29.81,ENE,78,0.0,0.0,76,0.00,,,0.00,,2013-06-13 00:42:00,
2013-06-12 20:52:00,69.0,63.0,29.79,ENE,78,0.0,0.0,80,0.00,,,0.00,,2013-06-13 00:52:00,
2013-06-12 21:01:00,67.0,62.0,29.79,ENE,78,0.0,0.0,83,0.00,,,0.00,,2013-06-13 01:01:00,
2013-06-12 21:12:00,67.0,62.0,29.78,SE,146,0.0,1.0,85,0.00,,,0.00,,2013-06-13 01:12:00,
2013-06-12 21:22:00,67.0,63.0,29.78,SE,146,0.0,0.0,86,0.00,,,0.00,,2013-06-13 01:22:00,
2013-06-12 21:33:00,67.0,63.0,29.78,SE,146,0.0,0.0,87,0.00,,,0.00,,2013-06-13 01:33:00,
2013-06-12 21:43:00,66.0,61.0,29.78,SE,146,0.0,0.0,85,0.00,,,0.00,,2013-06-13 01:43:00,
2013-06-12 21:53:00,66.0,61.0,29.78,SE,146,0.0,0.0,85,0.00,,,0.00,,2013-06-13 01:53:00,
2013-06-12 22:02:00,66.0,61.0,29.78,SE,146,0.0,0.0,85,0.00,,,0.00,,2013-06-13 02:02:00,
2013-06-12 22:12:00,66.0,62.0,29.78,SE,146,0.0,0.0,87,0.00,,,0.00,,2013-06-13 02:12:00,
2013-06-12 22:22:00,66.0,62.0,29.78,SE,146,0.0,0.0,87,0.00,,,0.00,,2013-06-13 02:22:00,
2013-06-12 22:33:00,66.0,62.0,29.78,SE,146,0.0,0.0,88,0.00,,,0.00,,2013-06-13 02:33:00,
2013-06-12 22:43:00,66.0,63.0,29.77,SE,146,0.0,0.0,89,0.00,,,0.00,,2013-06-13 02:43:00,
2013-06-12 22:52:00,66.0,63.0,29.77,SE,146,0.0,0.0,89,0.00,,,0.00,,2013-06-13 02:52:00,
2013-06-12 23:02:00,66.0,63.0,29.77,SE,146,0.0,0.0,89,0.00,,,0.00,,2013-06-13 03:02:00,
2013-06-12 23:12:00,66.0,63.0,29.76,SE,146,0.0,0.0,89,0.00,,,0.00,,2013-06-13 03:12:00,
2013-06-12 23:22:00,66.0,63.0,29.76,SE,146,0.0,0.0,89,0.00,,,0.00,,2013-06-13 03:22:00,
2013-06-12 23:33:00,66.0,63.0,29.76,SE,146,0.0,0.0,89,0.00,,,0.00,,2013-06-13 03:33:00,
2013-06-12 23:43:00,66.0,63.0,29.76,SE,146,0.0,0.0,89,0.00,,,0.00,,2013-06-13 03:43:00,
2013-06-12 23:52:00,66.0,63.0,29.74,SE,146,0.0,0.0,90,0.00,,,0.00,,2013-06-13 03:52:00,